1487494801.13,37040,14.06,73432.8,2.29,-37.87,-38.61,0,*73
1487494802.35,37041,14.0,73432.3,2.27,-38.97,-39.79,0,*7A
1487494803.59,37042,14.06,73434.8,2.27,-38.49,-39.09,0,*7D
1487494804.8,37043,14.06,73434.3,2.29,-37.57,-38.05,0,*7F
1487494806.05,37044,14.0,73434.5,2.29,-36.91,-37.27,0,*7C
1487494807.3,37045,14.06,73434.5,2.29,-36.49,-37.03,0,*7E
1487494808.56,37046,14.0,73432.8,2.33,-36.85,-37.39,0,*7F
1487494809.81,37047,14.06,73434.8,2.37,-36.25,-36.79,0,*75
1487494811.05,37048,14.06,73434.3,2.37,-36.97,-37.51,0,*78
1487494812.29,37049,14.06,73434.5,2.37,-36.85,-37.39,0,*74
1487494813.52,37050,14.06,73434.8,2.39,-36.43,-37.15,0,*76
1487494814.77,37051,14.06,73436.3,2.39,-36.55,-37.09,0,*7D
1487494816.02,37052,14.06,73432.8,2.39,-35.95,-36.43,0,*7E
1487494817.28,37053,14.0,73430.8,2.41,-35.95,-36.37,0,*73
1487494818.55,37054,14.06,73432.8,2.43,-35.95,-36.55,0,*72
1487494819.75,37055,14.06,73436.8,2.45,-36.07,-36.67,0,*7C
1487494821.0,37056,14.0,73428.3,2.47,-36.25,-36.85,0,*71
1487494822.23,37057,14.0,73428.8,2.45,-36.07,-36.61,0,*78
1487494823.43,37058,14.06,73434.0,2.49,-36.43,-36.97,0,*72
1487494824.64,37059,14.0,73432.0,2.49,-36.43,-36.97,0,*73
1487494825.86,37060,14.06,73434.0,2.49,-36.79,-37.33,0,*7F
1487494827.11,37061,14.06,73432.0,2.51,-37.27,-37.93,0,*77
1487494828.31,37062,14.06,73438.5,2.49,-38.43,-39.09,0,*7D
1487494829.56,37063,14.06,73434.8,2.51,-37.33,-37.93,0,*70
1487494830.79,37064,14.06,73432.5,2.49,-36.91,-37.33,0,*7D
1487494832.07,37065,14.06,73434.0,2.51,-37.09,-37.51,0,*71
1487494833.3,37066,14.06,73438.0,2.53,-36.73,-37.39,0,*72
1487494834.5,37067,14.06,73434.8,2.53,-36.85,-37.45,0,*71
1487494835.73,37068,14.06,73432.3,2.53,-37.03,-37.63,0,*75
1487494836.97,37069,14.06,73438.0,2.53,-37.21,-37.87,0,*7E
1487494838.17,37070,14.0,73432.8,2.57,-37.33,-37.75,0,*7C
1487494839.41,37071,14.06,73432.3,2.57,-37.39,-38.11,0,*7A
1487494840.64,37072,14.06,73436.5,2.57,-38.17,-38.79,0,*74
1487494841.83,37073,14.06,73434.3,2.57,-37.03,-37.45,0,*7F
1487494843.03,37074,14.06,73434.3,2.57,-36.43,-37.03,0,*7F
1487494844.26,37075,14.0,73434.0,2.57,-36.85,-37.39,0,*7D
1487494845.54,37076,14.06,73436.0,2.59,-38.29,-38.91,0,*75
1487494846.82,37077,14.06,73434.5,2.59,-37.99,-38.79,0,*76
1487494848.1,37078,14.06,73434.0,2.59,-38.49,-39.15,0,*70
1487494849.32,37079,14.06,73432.8,2.59,-37.15,-37.57,0,*7F
1487494850.58,37080,14.06,73438.0,2.59,-37.15,-37.63,0,*7E
1487494851.83,37081,14.06,73434.3,2.59,-37.45,-38.11,0,*70
1487494853.05,37082,14.06,73436.0,2.59,-36.97,-37.45,0,*73
1487494854.28,37083,14.06,73436.0,2.61,-36.73,-37.39,0,*78
1487494855.5,37084,14.06,73432.8,2.61,-37.51,-38.05,0,*7E
1487494856.72,37085,14.06,73434.0,2.63,-37.15,-37.87,0,*78
1487494857.97,37086,14.06,73432.3,2.63,-37.15,-37.93,0,*7E
1487494859.22,37087,14.0,73430.5,2.63,-37.57,-38.23,0,*7D
1487494860.45,37088,14.06,73432.0,2.63,-37.27,-37.87,0,*74
1487494861.68,37089,14.06,73434.8,2.65,-37.03,-37.81,0,*73
1487494862.9,37090,14.0,73432.0,2.65,-37.69,-38.17,0,*77
1487494864.13,37091,14.0,73430.0,2.65,-37.57,-38.23,0,*7C
1487494865.38,37092,14.0,73432.5,2.67,-36.79,-37.27,0,*7B
1487494866.6,37093,14.0,73434.8,2.67,-37.75,-38.35,0,*7B
1487494867.86,37094,14.0,73430.8,2.69,-38.11,-38.61,0,*7E
1487494869.13,37095,14.06,73432.8,2.67,-38.91,-39.79,0,*71
1487494870.38,37096,14.06,73434.0,2.67,-38.17,-38.79,0,*7D
1487494871.63,37097,14.06,73438.0,2.67,-37.27,-37.81,0,*78
1487494872.86,37098,14.06,73434.5,2.67,-37.75,-38.55,0,*76
1487494874.09,37099,14.06,73434.5,2.67,-37.03,-37.57,0,*7B
1487494875.33,37100,14.06,73434.5,2.67,-36.61,-37.27,0,*78
1487494876.57,37101,14.0,73432.0,2.69,-36.97,-37.57,0,*79
1487494877.79,37102,14.0,73432.3,2.69,-37.45,-38.17,0,*7F
1487494879.04,37103,14.0,73432.8,2.71,-37.09,-37.69,0,*79
1487494880.27,37104,14.0,73432.3,2.71,-36.43,-37.09,0,*77
1487494881.55,37105,14.0,73434.5,2.73,-36.25,-36.79,0,*72
1487494882.81,37106,14.0,73432.5,2.73,-36.19,-36.79,0,*7E
1487494884.04,37107,14.06,73434.8,2.79,-36.67,-37.39,0,*79
1487494885.25,37108,14.06,73432.3,2.79,-38.43,-39.09,0,*73
1487494886.47,37109,14.06,73432.8,2.79,-39.53,-40.35,0,*73
1487494887.76,37110,14.0,73432.0,2.73,-40.09,-40.85,0,*7B
1487494888.99,37111,14.06,73432.8,2.71,-39.85,-40.79,0,*71
1487494890.24,37112,14.06,73438.5,2.71,-39.53,-40.29,0,*7C
1487494891.49,37113,14.0,73432.5,2.71,-39.53,-40.21,0,*75
1487494892.75,37114,14.06,73432.3,2.69,-38.17,-38.91,0,*7E
1487494894.0,37115,14.0,73434.8,2.71,-38.91,-39.71,0,*77
1487494895.24,37116,14.06,73436.8,2.69,-39.09,-39.91,0,*73
1487494896.48,37117,14.06,73434.0,2.69,-38.79,-39.35,0,*7A
1487494897.73,37118,14.0,73432.0,2.69,-37.99,-38.73,0,*77
1487494898.99,37119,14.0,73434.0,2.69,-37.63,-38.17,0,*71
1487494900.22,37120,14.0,73434.0,2.69,-37.03,-37.75,0,*76
1487494901.45,37121,14.06,73434.8,2.69,-37.03,-37.57,0,*77
1487494902.67,37122,14.0,73432.8,2.69,-36.85,-37.45,0,*78
1487494903.91,37123,14.0,73432.3,2.71,-36.97,-37.51,0,*76
1487494905.14,37124,14.0,73434.3,2.73,-36.97,-37.57,0,*75
1487494906.4,37125,14.0,73434.8,2.73,-36.91,-37.57,0,*72
1487494907.61,37126,14.0,73434.3,2.75,-36.85,-37.45,0,*71
1487494908.87,37127,14.0,73430.8,2.79,-37.09,-37.63,0,*7D
1487494910.12,37128,14.0,73432.8,2.79,-36.61,-37.21,0,*7B
1487494911.39,37129,14.0,73434.0,2.81,-37.81,-38.61,0,*79
1487494912.64,37130,14.0,73432.8,2.81,-39.53,-40.47,0,*7B
1487494913.88,37131,14.0,73434.8,2.79,-39.71,-40.35,0,*78
1487494915.13,37132,14.0,73432.0,2.79,-38.79,-39.15,0,*7E
1487494916.33,37133,14.0,73434.5,2.75,-37.45,-38.05,0,*73
1487494917.57,37134,14.0,73432.8,2.79,-37.27,-37.81,0,*7F
1487494918.8,37135,14.0,73432.5,2.79,-37.09,-37.57,0,*79
1487494920.03,37136,14.0,73432.0,2.79,-36.67,-37.21,0,*72
1487494921.24,37137,14.0,73434.8,2.79,-36.31,-36.97,0,*7C
1487494922.44,37138,14.0,73434.8,2.83,-36.31,-36.97,0,*76
1487494923.69,37139,14.0,73432.0,2.85,-36.19,-36.79,0,*7B
1487494924.94,37140,14.0,73434.3,2.85,-36.19,-36.61,0,*7C
1487494926.14,37141,14.0,73430.3,2.87,-36.19,-36.73,0,*7C
1487494927.37,37142,14.0,73432.5,2.87,-36.13,-36.67,0,*70
1487494928.64,37143,14.0,73432.5,2.89,-36.37,-36.91,0,*70
1487494929.9,37144,14.0,73434.0,2.91,-36.61,-37.21,0,*77
1487494931.12,37145,14.0,73436.0,2.91,-36.13,-36.67,0,*70
1487494932.39,37146,14.0,73432.5,2.93,-35.83,-36.37,0,*7E
1487494933.59,37147,14.0,73434.8,2.95,-36.19,-36.73,0,*79
1487494934.82,37148,14.0,73432.0,2.97,-36.19,-36.73,0,*74
1487494936.04,37149,14.0,73436.5,3.01,-36.49,-36.97,0,*74
1487494937.28,37150,14.0,73432.0,3.01,-35.95,-36.55,0,*70
1487494938.53,37151,14.0,73432.0,3.01,-35.95,-36.37,0,*75
1487494939.73,37152,14.0,73434.3,3.01,-35.77,-36.31,0,*7C
1487494940.99,37153,14.0,73434.5,3.07,-35.71,-36.25,0,*78
1487494942.26,37154,14.0,73432.0,3.07,-36.25,-36.79,0,*74
1487494943.51,37155,14.0,73434.8,3.07,-36.79,-37.33,0,*73
1487494944.79,37156,14.0,73430.5,3.07,-36.25,-36.79,0,*76
1487494945.99,37157,14.0,73432.0,3.09,-36.55,-37.15,0,*75
1487494947.22,37158,14.06,73436.3,3.11,-36.55,-37.15,0,*73
1487494948.46,37159,14.0,73436.0,3.11,-36.37,-36.97,0,*7D
1487494949.66,37160,14.0,73432.0,3.13,-36.31,-36.85,0,*70
1487494950.88,37161,14.0,73434.8,3.15,-36.31,-37.03,0,*78
1487494952.12,37162,14.0,73432.0,3.13,-35.95,-36.55,0,*72
1487494953.34,37163,14.0,73434.3,3.15,-36.31,-37.03,0,*7A
1487494954.59,37164,14.0,73432.5,3.15,-36.91,-37.57,0,*76
1487494955.83,37165,14.0,73432.8,3.15,-36.31,-36.91,0,*76
1487494957.1,37166,14.06,73438.0,3.15,-36.25,-36.91,0,*70
1487494958.32,37167,14.0,73432.0,3.17,-36.79,-37.33,0,*73
1487494959.55,37168,14.0,73432.5,3.19,-36.01,-36.55,0,*7C
1487494960.78,37169,14.0,73432.5,3.19,-36.31,-36.97,0,*70
1487494962.03,37170,14.06,73438.0,3.19,-36.55,-37.09,0,*7C
1487494963.25,37171,14.0,73434.8,3.21,-36.31,-36.79,0,*72
1487494964.46,37172,14.0,73436.0,3.21,-36.43,-37.15,0,*7F
1487494965.66,37173,14.0,73436.0,3.25,-36.07,-36.67,0,*7E
1487494966.88,37174,14.0,73436.5,3.25,-35.89,-36.49,0,*70
1487494968.11,37175,14.0,73432.3,3.27,-36.07,-36.67,0,*7A
1487494969.35,37176,14.0,73434.5,3.27,-36.37,-37.03,0,*79
1487494970.58,37177,14.0,73436.0,3.29,-36.07,-36.79,0,*79
1487494971.81,37178,14.0,73436.3,3.29,-36.07,-36.49,0,*75
1487494973.03,37179,14.0,73432.5,3.29,-36.07,-36.61,0,*7E
1487494974.26,37180,14.0,73434.0,3.31,-37.03,-37.75,0,*70
1487494975.47,37181,14.0,73434.0,3.31,-38.55,-39.35,0,*77
1487494976.7,37182,14.0,73432.5,3.31,-39.09,-39.85,0,*77
1487494977.95,37183,14.0,73432.0,3.31,-37.93,-38.35,0,*71
1487494979.17,37184,14.0,73432.5,3.29,-37.33,-37.93,0,*76
1487494980.41,37185,14.0,73432.5,3.29,-37.21,-37.75,0,*7C
1487494981.64,37186,14.0,73432.3,3.29,-36.67,-37.21,0,*7D
1487494982.89,37187,14.0,73434.8,3.31,-36.07,-36.49,0,*7C
1487494984.12,37188,14.0,73434.8,3.33,-36.01,-36.43,0,*7D
1487494985.4,37189,14.0,73434.5,3.33,-36.37,-36.79,0,*70
1487494986.62,37190,14.0,73436.3,3.35,-36.19,-36.91,0,*74
1487494987.83,37191,14.0,73432.0,3.35,-37.27,-37.87,0,*7F
1487494989.03,37192,14.0,73434.0,3.35,-37.33,-38.05,0,*7C
1487494990.25,37193,14.0,73432.8,3.35,-36.13,-36.85,0,*78
1487494991.53,37194,14.0,73432.5,3.37,-35.95,-36.49,0,*70
1487494992.75,37195,14.0,73434.5,3.37,-36.19,-36.85,0,*76
1487494993.99,37196,14.0,73434.3,3.39,-37.15,-37.63,0,*7F
1487494995.21,37197,14.0,73438.0,3.41,-36.67,-37.27,0,*75
1487494996.47,37198,14.0,73434.3,3.41,-35.89,-36.61,0,*7A
1487494997.75,37199,14.0,73436.5,3.41,-36.61,-37.21,0,*7B
1487494999.01,37200,14.0,73434.0,3.41,-37.63,-38.61,0,*70
1487495000.24,37201,14.0,73434.5,3.41,-38.17,-38.97,0,*74
1487495001.44,37202,14.0,73432.3,3.39,-38.43,-39.09,0,*7F
1487495002.69,37203,14.0,73434.0,3.41,-37.99,-38.73,0,*75
1487495003.95,37204,14.0,73434.3,3.41,-37.93,-38.43,0,*7B
1487495005.17,37205,14.0,73434.5,3.39,-37.45,-37.93,0,*7C
1487495006.45,37206,14.0,73432.5,3.41,-37.39,-38.11,0,*7E
1487495007.66,37207,14.0,73434.5,3.39,-38.11,-38.73,0,*71
1487495008.9,37208,14.0,73434.3,3.41,-36.97,-37.75,0,*78
1487495010.16,37209,14.0,73434.5,3.41,-37.81,-38.73,0,*76
1487495011.4,37210,14.0,73434.5,3.39,-37.63,-38.11,0,*79
1487495012.61,37211,14.0,73434.8,3.39,-37.03,-37.75,0,*73
1487495013.86,37212,14.0,73436.3,3.41,-37.45,-38.11,0,*70
1487495015.09,37213,14.0,73434.0,3.41,-36.85,-37.57,0,*71
1487495016.34,37214,14.0,73432.3,3.43,-36.91,-37.69,0,*7C
1487495017.54,37215,14.0,73432.5,3.43,-36.97,-37.57,0,*76
1487495018.8,37216,14.0,73432.0,3.43,-36.91,-37.51,0,*75
1487495020.05,37217,14.0,73434.3,3.43,-36.37,-36.79,0,*73
1487495021.32,37218,14.0,73434.8,3.45,-36.37,-36.91,0,*7C
1487495022.55,37219,14.0,73434.0,3.49,-36.73,-37.27,0,*7D
1487495023.84,37220,14.0,73432.8,3.49,-37.51,-38.29,0,*77
1487495025.12,37221,14.0,73436.5,3.49,-38.49,-39.15,0,*7E
1487495026.38,37222,14.0,73434.5,3.49,-39.35,-40.21,0,*7E
1487495027.64,37223,14.0,73432.3,3.45,-39.65,-40.59,0,*79
1487495028.91,37224,14.0,73432.5,3.45,-38.11,-39.03,0,*7D
1487495030.19,37225,14.0,73434.5,3.45,-36.91,-37.51,0,*73
1487495031.44,37226,14.0,73432.3,3.45,-38.05,-38.91,0,*70
1487495032.7,37227,14.0,73432.3,3.45,-38.73,-39.59,0,*75
1487495033.94,37228,14.0,73434.3,3.45,-39.23,-40.03,0,*7F
1487495035.17,37229,14.0,73432.5,3.43,-37.87,-38.67,0,*75
1487495036.38,37230,14.0,73432.5,3.43,-38.85,-39.91,0,*78
1487495037.57,37231,14.0,73432.8,3.43,-38.73,-39.47,0,*7B
1487495038.8,37232,14.0,73434.0,3.41,-37.57,-38.17,0,*77
1487495040.06,37233,14.0,73432.0,3.41,-36.67,-37.21,0,*7E
1487495041.29,37234,14.0,73436.0,3.43,-36.73,-37.21,0,*7E
1487495042.55,37235,14.0,73434.8,3.45,-36.61,-37.15,0,*7D
1487495043.8,37236,14.0,73434.3,3.45,-36.73,-37.39,0,*73
1487495045.06,37237,14.0,73434.8,3.49,-36.91,-37.33,0,*78
1487495046.32,37238,14.0,73430.5,3.49,-36.67,-37.09,0,*77
1487495047.54,37239,14.0,73432.3,3.51,-36.31,-36.91,0,*7C
1487495048.75,37240,14.0,73436.0,3.51,-36.85,-37.57,0,*76
1487495049.99,37241,14.0,73432.0,3.51,-37.21,-37.75,0,*78
1487495051.25,37242,14.0,73432.3,3.51,-37.21,-37.81,0,*70
1487495052.51,37243,14.0,73434.3,3.53,-37.45,-37.99,0,*78
1487495053.76,37244,14.0,73436.3,3.53,-37.93,-38.61,0,*7C
1487495055.02,37245,14.0,73434.8,3.53,-39.09,-39.97,0,*78
1487495056.25,37246,14.0,73434.0,3.53,-38.55,-39.47,0,*7E
1487495057.5,37247,14.0,73436.0,3.53,-38.23,-39.09,0,*74
1487495058.73,37248,14.0,73436.5,3.53,-38.35,-39.09,0,*7C
1487495059.96,37249,14.0,73436.0,3.51,-39.91,-40.79,0,*79
1487495061.25,37250,14.0,73434.5,3.49,-37.81,-38.49,0,*7B
1487495062.51,37251,14.0,73434.8,3.53,-37.03,-37.81,0,*70
1487495063.77,37252,14.0,73432.3,3.51,-37.21,-37.81,0,*71
1487495064.98,37253,14.0,73432.8,3.51,-37.03,-37.57,0,*7B
1487495066.23,37254,14.0,73434.0,3.55,-36.79,-37.51,0,*72
1487495067.46,37255,14.0,73434.8,3.55,-36.61,-37.33,0,*7E
1487495068.69,37256,14.0,73432.5,3.55,-36.73,-37.21,0,*7D
1487495069.92,37257,14.0,73434.8,3.55,-37.03,-37.69,0,*76
1487495071.14,37258,14.0,73438.5,3.55,-37.51,-38.05,0,*7B
1487495072.37,37259,14.0,73436.0,3.55,-36.73,-37.39,0,*7B
1487495073.58,37260,14.0,73434.0,3.59,-36.67,-37.33,0,*72
1487495074.81,37261,14.0,73436.8,3.59,-36.85,-37.63,0,*7A
1487495076.03,37262,14.0,73432.3,3.61,-38.35,-39.09,0,*75
1487495077.26,37263,14.0,73434.3,3.59,-39.03,-39.85,0,*7F
1487495078.47,37264,14.0,73432.0,3.59,-38.67,-39.47,0,*75
1487495079.7,37265,14.0,73434.3,3.57,-37.75,-38.35,0,*72
1487495080.96,37266,14.0,73438.5,3.59,-36.91,-37.63,0,*78
1487495082.15,37267,14.0,73434.5,3.59,-37.45,-38.05,0,*7E
1487495083.38,37268,14.0,73430.5,3.59,-37.51,-37.87,0,*71
1487495084.58,37269,14.0,73434.8,3.59,-36.85,-37.45,0,*76
1487495085.85,37270,14.0,73432.3,3.61,-36.79,-37.39,0,*7D
1487495087.1,37271,14.0,73436.0,3.61,-36.91,-37.45,0,*71
1487495088.35,37272,14.0,73432.0,3.61,-36.61,-37.27,0,*79
1487495089.6,37273,14.0,73432.5,3.63,-36.61,-37.21,0,*7C
1487495090.8,37274,14.0,73432.5,3.65,-36.73,-37.33,0,*7D
1487495092.04,37275,14.0,73434.5,3.67,-36.73,-37.15,0,*7A
1487495093.24,37276,14.0,73438.0,3.65,-36.19,-36.73,0,*76
1487495094.47,37277,14.0,73436.5,3.71,-36.31,-36.73,0,*78
1487495095.74,37278,14.0,73438.3,3.71,-36.13,-36.79,0,*7D
1487495096.97,37279,14.0,73434.5,3.73,-37.03,-37.81,0,*78
1487495098.19,37280,14.0,73434.3,3.73,-38.11,-38.97,0,*7A
1487495099.44,37281,14.0,73436.0,3.71,-38.05,-38.79,0,*7C
1487495100.65,37282,14.0,73434.3,3.73,-37.87,-38.55,0,*76
1487495101.9,37283,13.94,73428.3,3.71,-38.11,-38.97,0,*7B
1487495103.15,37284,14.0,73436.0,3.73,-37.09,-37.81,0,*70
1487495104.38,37285,14.0,73432.3,3.73,-36.49,-37.27,0,*78
1487495105.6,37286,14.0,73436.5,3.73,-36.43,-36.91,0,*7D
1487495106.8,37287,14.0,73432.3,3.73,-36.31,-36.85,0,*7C
1487495108.02,37288,14.0,73434.3,3.77,-36.37,-36.85,0,*71
1487495109.27,37289,14.0,73432.3,3.77,-35.95,-36.61,0,*71
1487495110.52,37290,14.0,73432.3,3.77,-35.83,-36.37,0,*7D
1487495111.77,37291,14.0,73436.5,3.79,-35.83,-36.43,0,*71
1487495113.0,37292,14.0,73432.8,3.79,-36.43,-37.15,0,*7F
1487495114.22,37293,14.0,73434.5,3.79,-36.85,-37.33,0,*70
1487495115.42,37294,14.0,73438.0,3.81,-37.27,-37.75,0,*7B
1487495116.62,37295,14.0,73432.3,3.81,-37.27,-38.05,0,*72
1487495117.84,37296,14.0,73436.5,3.81,-37.27,-37.93,0,*71
1487495119.09,37297,14.0,73432.8,3.79,-37.39,-37.75,0,*70
1487495120.31,37298,14.0,73432.0,3.83,-36.67,-37.45,0,*73
1487495121.53,37299,13.94,73432.5,3.83,-37.45,-38.17,0,*7B
1487495122.78,37300,14.0,73434.5,3.83,-37.09,-37.87,0,*74
1487495124.01,37301,14.0,73434.5,3.85,-37.45,-38.23,0,*7A
1487495125.23,37302,14.0,73436.0,3.83,-36.85,-37.27,0,*79
1487495126.5,37303,14.0,73436.0,3.83,-37.09,-37.69,0,*77
1487495127.73,37304,14.0,73438.8,3.85,-37.63,-38.35,0,*7C
1487495128.92,37305,14.0,73432.0,3.85,-38.05,-38.73,0,*70
1487495130.13,37306,14.0,73436.3,3.83,-38.55,-39.35,0,*73
1487495131.36,37307,14.0,73438.3,3.83,-37.57,-38.35,0,*7E
1487495132.63,37308,13.94,73430.8,3.83,-37.09,-37.69,0,*7C
1487495133.86,37309,13.94,73434.5,3.85,-36.73,-37.39,0,*72
1487495135.08,37310,14.0,73438.5,3.85,-36.85,-37.39,0,*73
1487495136.33,37311,13.94,73434.8,3.87,-36.61,-37.15,0,*74
1487495137.56,37312,14.0,73436.5,3.89,-36.19,-36.61,0,*74
1487495138.76,37313,14.0,73434.3,3.89,-36.43,-36.97,0,*73
1487495140.01,37314,14.0,73436.8,3.89,-37.39,-37.93,0,*7D
1487495141.2,37315,14.0,73438.5,3.89,-36.19,-36.85,0,*79
1487495142.41,37316,14.0,73434.3,3.89,-36.43,-37.03,0,*7A
1487495143.63,37317,13.94,73434.8,3.95,-36.07,-36.73,0,*70
1487495144.87,37318,14.0,73432.3,3.95,-36.13,-36.85,0,*73
1487495146.12,37319,14.0,73432.3,3.97,-36.49,-37.03,0,*70
1487495147.41,37320,14.0,73436.5,3.97,-36.91,-37.51,0,*78
1487495148.64,37321,14.0,73434.3,3.97,-35.77,-36.31,0,*75
1487495149.84,37322,14.0,73432.8,3.99,-35.71,-36.31,0,*7E
1487495151.05,37323,13.94,73434.8,3.99,-36.01,-36.67,0,*78
1487495152.28,37324,14.0,73436.5,3.99,-36.49,-36.97,0,*7C
1487495153.51,37325,13.94,73432.8,4.03,-35.95,-36.43,0,*72
1487495154.76,37326,13.94,73432.5,4.03,-36.25,-36.91,0,*76
1487495156.01,37327,13.94,73432.5,4.03,-36.13,-36.61,0,*7D
1487495157.26,37328,14.0,73436.8,4.03,-36.91,-37.39,0,*74
1487495158.46,37329,14.0,73434.3,4.03,-36.97,-37.57,0,*7B
1487495159.72,37330,14.0,73434.3,4.05,-36.31,-36.91,0,*72
1487495160.98,37331,14.0,73436.8,4.05,-35.95,-36.55,0,*76
1487495162.2,37332,13.94,73432.3,4.07,-36.13,-36.73,0,*7E
1487495163.46,37333,14.0,73436.3,4.09,-36.25,-36.85,0,*7D
1487495164.71,37334,13.94,73432.5,4.09,-36.49,-37.03,0,*7F
1487495165.94,37335,14.0,73434.8,4.09,-36.31,-36.67,0,*72
1487495167.2,37336,13.94,73434.8,4.09,-35.83,-36.43,0,*7D
1487495168.43,37337,13.94,73434.0,4.11,-36.13,-36.67,0,*79
1487495169.65,37338,13.94,73434.0,4.11,-35.89,-36.49,0,*7A
1487495170.88,37339,13.94,73432.0,4.11,-36.07,-36.61,0,*74
1487495172.15,37340,13.94,73432.0,4.13,-36.37,-37.09,0,*74
1487495173.39,37341,13.94,73436.0,4.17,-36.67,-37.15,0,*79
1487495174.61,37342,13.94,73432.8,4.17,-36.19,-36.73,0,*72
1487495175.81,37343,13.94,73436.3,4.19,-36.19,-36.85,0,*74
1487495177.0,37344,14.0,73436.5,4.19,-36.73,-37.45,0,*72
1487495178.2,37345,14.0,73436.5,4.19,-36.19,-36.85,0,*72
1487495179.42,37346,13.94,73436.0,4.19,-35.89,-36.49,0,*7B
1487495180.68,37347,13.94,73432.5,4.21,-35.47,-35.95,0,*71
1487495181.9,37348,13.94,73434.8,4.21,-35.47,-36.07,0,*76
1487495183.17,37349,13.94,73432.3,4.25,-36.25,-36.91,0,*7B
1487495184.41,37350,14.0,73434.8,4.25,-37.15,-37.69,0,*77
1487495185.66,37351,14.0,73436.8,4.23,-37.93,-38.79,0,*70
1487495186.91,37352,13.94,73436.0,4.23,-37.93,-38.79,0,*73
1487495188.14,37353,13.94,73432.8,4.21,-37.75,-38.55,0,*76
1487495189.34,37354,13.94,73432.5,4.23,-37.75,-38.35,0,*75
1487495190.56,37355,13.94,73434.0,4.23,-37.99,-38.73,0,*74
1487495191.78,37356,13.94,73436.0,4.21,-38.35,-39.09,0,*70
1487495193.0,37357,13.94,73434.5,4.19,-37.51,-38.17,0,*79
1487495194.26,37358,13.94,73434.0,4.21,-36.97,-37.63,0,*7A
1487495195.54,37359,13.94,73432.8,4.21,-35.95,-36.49,0,*73
1487495196.79,37360,13.94,73432.0,4.21,-36.07,-36.61,0,*7B
1487495198.01,37361,13.94,73432.3,4.23,-36.07,-36.49,0,*72
1487495199.28,37362,13.94,73432.0,4.25,-37.51,-38.11,0,*76
1487495200.5,37363,13.94,73432.8,4.25,-37.87,-38.73,0,*78
1487495201.77,37364,13.94,73434.3,4.25,-38.29,-39.03,0,*72
1487495203.02,37365,14.0,73436.5,4.23,-37.69,-37.93,0,*79
1487495204.24,37366,13.94,73430.0,4.23,-36.49,-36.97,0,*7C
1487495205.51,37367,13.94,73432.3,4.25,-36.79,-37.39,0,*7D
1487495206.73,37368,13.94,73432.3,4.25,-36.43,-36.97,0,*7E
1487495207.98,37369,13.94,73436.0,4.25,-36.79,-37.57,0,*7B
1487495209.2,37370,13.94,73432.5,4.27,-36.61,-37.03,0,*79
1487495210.43,37371,13.94,73430.5,4.29,-36.31,-36.91,0,*79
1487495211.65,37372,13.94,73436.5,4.29,-36.19,-36.91,0,*70
1487495212.86,37373,13.94,73430.8,4.29,-36.31,-36.67,0,*72
1487495214.09,37374,13.94,73436.3,4.29,-36.31,-36.91,0,*7C
1487495215.34,37375,13.94,73432.5,4.31,-36.43,-36.91,0,*71
1487495216.57,37376,13.94,73432.5,4.33,-37.09,-37.75,0,*74
1487495217.83,37377,13.94,73434.0,4.31,-38.35,-39.15,0,*7F
1487495219.07,37378,13.94,73436.0,4.31,-39.91,-40.91,0,*7D
1487495220.27,37379,13.94,73434.0,4.29,-40.73,-41.41,0,*7B
1487495221.49,37380,13.94,73432.3,4.27,-39.65,-40.29,0,*75
1487495222.72,37381,13.94,73434.8,4.27,-36.73,-37.51,0,*73
1487495223.97,37382,13.94,73432.5,4.29,-36.37,-36.91,0,*73
1487495225.2,37383,13.94,73438.0,4.29,-36.13,-36.73,0,*78
1487495226.4,37384,13.94,73434.8,4.29,-36.31,-36.73,0,*7F
1487495227.64,37385,13.94,73436.5,4.29,-37.15,-37.99,0,*7C
1487495228.84,37386,13.94,73434.3,4.29,-36.97,-37.45,0,*75
1487495230.12,37387,13.94,73432.3,4.31,-36.91,-37.63,0,*7F
1487495231.35,37388,13.94,73432.5,4.31,-36.85,-37.45,0,*71
1487495232.58,37389,13.94,73434.8,4.33,-36.43,-37.21,0,*7A
1487495233.81,37390,13.94,73436.3,4.33,-36.43,-36.91,0,*78
1487495235.06,37391,13.94,73432.0,4.33,-36.25,-36.79,0,*7F
1487495236.29,37392,13.94,73434.0,4.33,-36.07,-36.61,0,*75
1487495237.54,37393,13.94,73436.3,4.35,-36.61,-37.33,0,*74
1487495238.81,37394,13.94,73434.8,4.39,-36.25,-36.79,0,*70
1487495240.06,37395,13.94,73434.3,4.39,-36.37,-36.85,0,*71
1487495241.26,37396,13.94,73432.5,4.41,-36.67,-37.15,0,*70
1487495242.51,37397,13.94,73434.8,4.41,-36.37,-37.09,0,*79
1487495243.76,37398,13.94,73434.8,4.43,-36.43,-36.91,0,*77
1487495245.03,37399,13.94,73432.5,4.43,-36.49,-37.21,0,*76
1487495246.29,37400,13.94,73432.3,4.43,-36.25,-36.67,0,*78
1487495247.56,37401,13.94,73432.5,4.43,-36.61,-37.21,0,*7A
1487495248.79,37402,13.94,73432.5,4.47,-36.43,-36.97,0,*71
1487495250.02,37403,13.94,73432.0,4.47,-36.07,-36.55,0,*7E
1487495251.23,37404,13.94,73432.8,4.45,-36.43,-37.03,0,*79
1487495252.48,37405,13.94,73430.8,4.47,-36.07,-36.61,0,*7F
1487495253.72,37406,13.94,73434.8,4.51,-35.65,-36.19,0,*73
1487495254.99,37407,13.94,73434.5,4.51,-35.83,-36.49,0,*7F
1487495256.22,37408,13.94,73436.0,4.55,-35.71,-36.31,0,*76
1487495257.42,37409,13.94,73434.8,4.53,-36.19,-36.97,0,*70
1487495258.64,37410,13.94,73434.8,4.55,-36.85,-37.57,0,*76
1487495259.89,37411,13.94,73436.3,4.55,-36.13,-36.73,0,*7F
1487495261.16,37412,13.94,73432.0,4.55,-36.13,-36.91,0,*70
1487495262.36,37413,13.94,73434.3,4.57,-36.43,-37.03,0,*7C
1487495263.57,37414,13.94,73430.8,4.57,-36.07,-36.67,0,*78
1487495264.8,37415,13.94,73432.5,4.57,-35.35,-35.89,0,*78
1487495266.03,37416,13.94,73428.8,4.61,-36.01,-36.49,0,*75
1487495267.27,37417,13.94,73434.3,4.63,-35.65,-36.19,0,*72
1487495268.53,37418,13.94,73432.8,4.63,-35.83,-36.43,0,*7A
1487495269.77,37419,13.94,73434.5,4.65,-35.83,-36.61,0,*7D
1487495270.99,37420,13.94,73434.3,4.65,-35.65,-36.31,0,*7A
1487495272.19,37421,13.94,73432.8,4.65,-36.01,-36.73,0,*7C
1487495273.44,37422,13.94,73430.8,4.67,-36.25,-36.85,0,*72
1487495274.69,37423,13.94,73432.8,4.67,-36.13,-36.85,0,*76
1487495275.88,37424,13.94,73432.3,4.69,-36.19,-36.85,0,*75
1487495277.11,37425,13.94,73434.5,4.69,-37.03,-37.81,0,*7B
1487495278.36,37426,13.94,73432.3,4.67,-36.91,-37.57,0,*77
1487495279.59,37427,13.94,73432.0,4.69,-36.67,-37.51,0,*77
1487495280.82,37428,13.94,73434.0,4.69,-37.15,-37.93,0,*72
1487495282.05,37429,13.94,73434.0,4.69,-36.85,-37.39,0,*7B
1487495283.26,37430,13.94,73432.8,4.73,-35.65,-36.19,0,*76
1487495284.51,37431,13.94,73434.5,4.73,-36.79,-37.51,0,*74
1487495285.71,37432,13.94,73432.5,4.73,-36.73,-37.27,0,*7C
1487495286.91,37433,13.94,73434.0,4.73,-37.27,-38.05,0,*72
1487495288.13,37434,13.94,73430.8,4.73,-37.27,-37.93,0,*75
1487495289.33,37435,13.94,73432.5,4.73,-37.75,-38.61,0,*71
1487495290.56,37436,13.94,73434.0,4.73,-37.09,-37.75,0,*73
1487495291.8,37437,13.94,73430.3,4.73,-36.13,-36.79,0,*75
1487495293.0,37438,13.94,73434.5,4.73,-36.01,-36.73,0,*73
1487495294.26,37439,13.94,73432.5,4.75,-35.83,-36.43,0,*7E
1487495295.53,37440,13.94,73436.8,4.75,-36.25,-36.91,0,*70
1487495296.78,37441,13.94,73434.3,4.77,-35.41,-36.13,0,*78
1487495298.0,37442,13.94,73432.3,4.77,-35.71,-36.37,0,*7E
1487495299.2,37443,13.94,73430.3,4.77,-36.73,-37.45,0,*7A
1487495300.43,37444,13.94,73432.5,4.77,-37.03,-37.69,0,*75
1487495301.69,37445,13.94,73434.5,4.77,-36.91,-37.51,0,*75
1487495302.93,37446,13.94,73434.5,4.79,-36.13,-36.85,0,*7A
1487495304.13,37447,13.94,73432.8,4.81,-35.71,-36.31,0,*74
1487495305.36,37448,13.94,73432.5,4.81,-35.35,-35.89,0,*7B
1487495306.58,37449,13.94,73432.5,4.81,-35.65,-36.31,0,*7F
1487495307.8,37450,13.94,73432.0,4.85,-35.59,-36.25,0,*79